OYXMF EKVH-EKVH

Flight info

Callsign OYXMF
Flight time 1h 12m
Altitude 5000
Route EKVH
Aircraft GLID/L-SDE2E3FGHIJ1RWXY/LB1

Departure

Time 2026-04-23 13:26
Airport Vesthimmerland Airfield (EKVH)

Arrival

Time 2026-04-23 14:38
Airport Vesthimmerland Airfield (EKVH)
Time Latitude Longitude Altitude Speed Heading
2026-04-23 13:23 56.84598 9.46495 102 ft 0 kts 287°
2026-04-23 13:25 56.84634 9.46258 372 ft 51 kts 277°
2026-04-23 13:25 56.84717 9.45807 1450 ft 43 kts 289°
2026-04-23 13:25 56.84839 9.45313 1975 ft 40 kts 292°
2026-04-23 13:25 56.84976 9.44922 2009 ft 42 kts 311°
2026-04-23 13:26 56.85185 9.44682 2008 ft 39 kts 314°
2026-04-23 13:26 56.85119 9.44456 2049 ft 54 kts 185°
2026-04-23 13:26 56.85043 9.44558 2057 ft 56 kts 130°
2026-04-23 13:26 56.85170 9.45089 1845 ft 46 kts 14°
2026-04-23 13:27 56.85501 9.45400 1754 ft 50 kts 24°
2026-04-23 13:27 56.85743 9.45905 1715 ft 53 kts 35°
2026-04-23 13:27 56.85930 9.46513 1816 ft 54 kts 50°
2026-04-23 13:27 56.86143 9.46645 1942 ft 34 kts 284°
2026-04-23 13:28 56.85929 9.46718 2072 ft 58 kts 85°
2026-04-23 13:28 56.86025 9.46705 2304 ft 46 kts 209°
2026-04-23 13:28 56.85974 9.47162 2390 ft 42 kts 359°
2026-04-23 13:28 56.85882 9.46874 2355 ft 54 kts 204°
2026-04-23 13:29 56.85553 9.46755 2335 ft 42 kts 227°
2026-04-23 13:29 56.85670 9.46599 2306 ft 45 kts 17°
2026-04-23 13:29 56.85814 9.47209 2239 ft 59 kts 60°
2026-04-23 13:29 56.85998 9.47826 2301 ft 48 kts 20°
2026-04-23 13:30 56.86194 9.47686 2261 ft 32 kts 275°
2026-04-23 13:30 56.86025 9.47336 2212 ft 36 kts 235°
2026-04-23 13:30 56.86074 9.47001 2173 ft 38 kts 336°
2026-04-23 13:30 56.86304 9.47360 2263 ft 55 kts 57°
2026-04-23 13:31 56.86202 9.47741 2278 ft 54 kts 183°
2026-04-23 13:31 56.86160 9.47740 2264 ft 50 kts 209°
2026-04-23 13:31 56.86052 9.47404 2238 ft 36 kts 266°
2026-04-23 13:31 56.86040 9.46956 2203 ft 34 kts 279°
2026-04-23 13:32 56.86224 9.46897 2362 ft 57 kts 66°
2026-04-23 13:32 56.86003 9.47044 2352 ft 41 kts 274°
2026-04-23 13:32 56.86241 9.46875 2375 ft 37 kts 302°
2026-04-23 13:32 56.86022 9.46686 2551 ft 55 kts 163°
2026-04-23 13:33 56.86003 9.46487 2604 ft 56 kts 15°
2026-04-23 13:33 56.85885 9.47056 2763 ft 57 kts 198°
2026-04-23 13:33 56.85919 9.46869 2731 ft 57 kts 31°
2026-04-23 13:33 56.85733 9.47334 2687 ft 52 kts 217°
2026-04-23 13:34 56.85775 9.47119 2666 ft 45 kts 13°
2026-04-23 13:34 56.86052 9.47398 2606 ft 49 kts 17°
2026-04-23 13:34 56.86143 9.47967 2554 ft 62 kts 138°
2026-04-23 13:34 56.85923 9.47903 2566 ft 35 kts 298°
2026-04-23 13:35 56.86166 9.48161 2641 ft 48 kts 39°
2026-04-23 13:35 56.86146 9.48716 2839 ft 53 kts 176°
2026-04-23 13:35 56.86137 9.48590 2854 ft 51 kts 23°
2026-04-23 13:35 56.86002 9.48992 2942 ft 42 kts 210°
2026-04-23 13:36 56.85772 9.48707 2895 ft 35 kts 269°
2026-04-23 13:36 56.85932 9.48500 2853 ft 41 kts
2026-04-23 13:36 56.86183 9.48787 2910 ft 43 kts 14°
2026-04-23 13:36 56.86418 9.49148 3041 ft 46 kts 26°
2026-04-23 13:37 56.86656 9.49616 3135 ft 52 kts 38°
2026-04-23 13:37 56.86897 9.50107 3165 ft 50 kts 26°
2026-04-23 13:37 56.87129 9.50527 3266 ft 50 kts 36°
2026-04-23 13:37 56.87072 9.51176 3342 ft 64 kts 155°
2026-04-23 13:38 56.86891 9.50953 3429 ft 35 kts 317°
2026-04-23 13:38 56.87060 9.51328 3529 ft 60 kts 98°
2026-04-23 13:38 56.86754 9.51519 3613 ft 40 kts 247°
2026-04-23 13:38 56.86886 9.51384 3657 ft 47 kts 29°
2026-04-23 13:39 56.86744 9.51920 3729 ft 59 kts 192°
2026-04-23 13:39 56.86720 9.51661 3805 ft 37 kts 360°
2026-04-23 13:39 56.86720 9.52221 3847 ft 62 kts 142°
2026-04-23 13:39 56.86512 9.52084 3872 ft 31 kts 321°
2026-04-23 13:40 56.86654 9.52467 3855 ft 63 kts 92°
2026-04-23 13:40 56.86408 9.53221 3902 ft 68 kts 125°
2026-04-23 13:40 56.86094 9.53874 3932 ft 71 kts 134°
2026-04-23 13:40 56.85729 9.54440 4009 ft 71 kts 145°
2026-04-23 13:41 56.85321 9.54878 4018 ft 67 kts 165°
2026-04-23 13:41 56.84869 9.55097 4006 ft 60 kts 185°
2026-04-23 13:41 56.84433 9.55065 4017 ft 57 kts 204°
2026-04-23 13:41 56.84049 9.54823 3950 ft 61 kts 222°
2026-04-23 13:42 56.83685 9.54535 3991 ft 57 kts 217°
2026-04-23 13:42 56.83357 9.54203 4002 ft 51 kts 229°
2026-04-23 13:42 56.83025 9.53888 3972 ft 57 kts 222°
2026-04-23 13:42 56.82665 9.53601 4003 ft 57 kts 217°
2026-04-23 13:43 56.82290 9.53351 3999 ft 56 kts 216°
2026-04-23 13:43 56.81912 9.53102 3957 ft 58 kts 214°
2026-04-23 13:43 56.81522 9.52881 3909 ft 63 kts 215°
2026-04-23 13:43 56.81419 9.52541 4071 ft 34 kts 346°
2026-04-23 13:44 56.81381 9.53059 4148 ft 60 kts 166°
2026-04-23 13:44 56.81305 9.52911 4052 ft 52 kts 31°
2026-04-23 13:44 56.81530 9.53412 4045 ft 49 kts 34°
2026-04-23 13:44 56.81729 9.53619 3985 ft 42 kts 270°
2026-04-23 13:45 56.81644 9.53276 3934 ft 45 kts 268°
2026-04-23 13:45 56.81572 9.52594 3966 ft 39 kts 287°
2026-04-23 13:45 56.81645 9.52200 4097 ft 29 kts 317°
2026-04-23 13:45 56.81867 9.52175 4115 ft 34 kts 312°
2026-04-23 13:46 56.81577 9.51944 4127 ft 73 kts 161°
2026-04-23 13:46 56.81440 9.52660 4220 ft 53 kts 30°
2026-04-23 13:46 56.81488 9.52437 4285 ft 61 kts 214°
2026-04-23 13:46 56.81229 9.52958 4348 ft 54 kts 53°
2026-04-23 13:47 56.81475 9.53075 4284 ft 34 kts 337°
2026-04-23 13:47 56.81694 9.52953 4226 ft 42 kts 327°
2026-04-23 13:47 56.81904 9.53143 4147 ft 67 kts 98°
2026-04-23 13:47 56.81522 9.53254 4047 ft 62 kts 205°
2026-04-23 13:48 56.81046 9.53042 4042 ft 64 kts 209°
2026-04-23 13:48 56.80663 9.52858 4073 ft 53 kts 221°
2026-04-23 13:48 56.80428 9.52517 4137 ft 33 kts 297°
2026-04-23 13:48 56.80571 9.52823 4192 ft 62 kts 96°
2026-04-23 13:49 56.80228 9.53008 4182 ft 51 kts 248°
2026-04-23 13:49 56.80226 9.52511 4278 ft 37 kts 337°
2026-04-23 13:49 56.80260 9.53042 4338 ft 70 kts 142°
2026-04-23 13:49 56.79876 9.53032 4345 ft 55 kts 223°
2026-04-23 13:50 56.79493 9.52702 4323 ft 56 kts 225°
2026-04-23 13:50 56.79080 9.52297 4247 ft 73 kts 223°
2026-04-23 13:50 56.78633 9.51896 4226 ft 74 kts 220°
2026-04-23 13:50 56.78189 9.51428 4268 ft 68 kts 220°
2026-04-23 13:51 56.77868 9.51800 4336 ft 64 kts 69°
2026-04-23 13:51 56.78097 9.51961 4373 ft 37 kts
2026-04-23 13:51 56.78022 9.52547 4381 ft 60 kts 143°
2026-04-23 13:51 56.77660 9.52933 4326 ft 61 kts 164°
2026-04-23 13:52 56.77215 9.53213 4262 ft 63 kts 174°
2026-04-23 13:52 56.76815 9.53403 4326 ft 60 kts 173°
2026-04-23 13:52 56.76357 9.53509 4250 ft 67 kts 195°
2026-04-23 13:52 56.75905 9.53425 4306 ft 66 kts 198°
2026-04-23 13:53 56.75473 9.53329 4344 ft 65 kts 204°
2026-04-23 13:53 56.75044 9.53193 4391 ft 61 kts 206°
2026-04-23 13:53 56.74632 9.52965 4389 ft 57 kts 221°
2026-04-23 13:53 56.74304 9.52570 4395 ft 55 kts 231°
2026-04-23 13:54 56.73964 9.52233 4361 ft 61 kts 228°
2026-04-23 13:54 56.73625 9.51901 4431 ft 53 kts 229°
2026-04-23 13:54 56.73302 9.51509 4402 ft 54 kts 235°
2026-04-23 13:54 56.72963 9.51160 4386 ft 64 kts 222°
2026-04-23 13:55 56.72574 9.50914 4399 ft 63 kts 215°
2026-04-23 13:55 56.72162 9.50681 4447 ft 57 kts 213°
2026-04-23 13:55 56.71728 9.50484 4395 ft 59 kts 208°
2026-04-23 13:55 56.71314 9.50308 4393 ft 69 kts 210°
2026-04-23 13:56 56.70917 9.50141 4402 ft 59 kts 215°
2026-04-23 13:56 56.70518 9.50240 4325 ft 74 kts 106°
2026-04-23 13:56 56.70450 9.51081 4301 ft 66 kts 75°
2026-04-23 13:56 56.70477 9.51900 4290 ft 64 kts 72°
2026-04-23 13:57 56.70515 9.52717 4218 ft 64 kts 70°
2026-04-23 13:57 56.70418 9.53492 4215 ft 71 kts 143°
2026-04-23 13:57 56.70115 9.53357 4260 ft 37 kts 293°
2026-04-23 13:57 56.70275 9.53622 4326 ft 65 kts 96°
2026-04-23 13:58 56.69959 9.53739 4296 ft 41 kts 278°
2026-04-23 13:58 56.70178 9.53846 4271 ft 44 kts 14°
2026-04-23 13:58 56.70412 9.54167 4321 ft 44 kts 25°
2026-04-23 13:58 56.70605 9.54616 4379 ft 45 kts 25°
2026-04-23 13:59 56.70793 9.55045 4457 ft 42 kts 27°
2026-04-23 13:59 56.71023 9.55432 4406 ft 44 kts
2026-04-23 13:59 56.71275 9.55662 4373 ft 43 kts
2026-04-23 13:59 56.71528 9.55945 4337 ft 45 kts 16°
2026-04-23 14:00 56.71708 9.56102 4361 ft 39 kts 351°
2026-04-23 14:00 56.72070 9.56278 4345 ft 40 kts 357°
2026-04-23 14:00 56.72367 9.56378 4286 ft 46 kts
2026-04-23 14:00 56.72640 9.56617 4301 ft 40 kts
2026-04-23 14:01 56.72869 9.56808 4375 ft 38 kts
2026-04-23 14:01 56.72761 9.57366 4315 ft 62 kts 178°
2026-04-23 14:01 56.72640 9.57108 4275 ft 29 kts 323°
2026-04-23 14:01 56.72850 9.56989 4293 ft 32 kts 340°
2026-04-23 14:02 56.73051 9.56861 4247 ft 28 kts 323°
2026-04-23 14:02 56.73237 9.56622 4147 ft 40 kts 321°
2026-04-23 14:02 56.73467 9.56445 4116 ft 36 kts 335°
2026-04-23 14:02 56.73736 9.56388 4066 ft 38 kts 346°
2026-04-23 14:03 56.74020 9.56433 4038 ft 41 kts 350°
2026-04-23 14:03 56.74190 9.56480 4061 ft 37 kts 352°
2026-04-23 14:03 56.74423 9.56760 4108 ft 60 kts 73°
2026-04-23 14:03 56.74160 9.56912 4177 ft 37 kts 292°
2026-04-23 14:04 56.74125 9.57224 4279 ft 60 kts 193°
2026-04-23 14:04 56.74111 9.57071 4374 ft 44 kts 32°
2026-04-23 14:04 56.73905 9.57442 4356 ft 46 kts 252°
2026-04-23 14:04 56.74088 9.57442 4301 ft 40 kts
2026-04-23 14:05 56.74361 9.57625 4321 ft 35 kts 352°
2026-04-23 14:05 56.74624 9.57608 4341 ft 39 kts 356°
2026-04-23 14:05 56.74826 9.58171 4334 ft 63 kts 66°
2026-04-23 14:05 56.74688 9.58999 4319 ft 76 kts 128°
2026-04-23 14:06 56.74266 9.59270 4377 ft 52 kts 227°
2026-04-23 14:06 56.74340 9.59249 4299 ft 60 kts 62°
2026-04-23 14:06 56.74363 9.60029 4308 ft 62 kts 67°
2026-04-23 14:06 56.74325 9.60828 4322 ft 67 kts 104°
2026-04-23 14:07 56.74162 9.61634 4297 ft 69 kts 98°
2026-04-23 14:07 56.74070 9.63168 4130 ft 53 kts
2026-04-23 14:07 56.74341 9.62969 4219 ft 35 kts 322°
2026-04-23 14:08 56.74544 9.62701 4253 ft 39 kts 320°
2026-04-23 14:08 56.74731 9.62419 4234 ft 41 kts 314°
2026-04-23 14:08 56.74880 9.62074 4250 ft 38 kts 305°
2026-04-23 14:08 56.75001 9.61661 4263 ft 33 kts 304°
2026-04-23 14:09 56.75171 9.61330 4181 ft 35 kts 330°
2026-04-23 14:09 56.75440 9.61297 4137 ft 42 kts 346°
2026-04-23 14:09 56.75706 9.61268 4097 ft 40 kts 344°
2026-04-23 14:09 56.75961 9.61170 4129 ft 34 kts 324°
2026-04-23 14:10 56.76163 9.60887 4078 ft 29 kts 317°
2026-04-23 14:10 56.76354 9.60575 3983 ft 40 kts 315°
2026-04-23 14:10 56.76511 9.60264 4005 ft 41 kts 311°
2026-04-23 14:10 56.76731 9.59799 3955 ft 48 kts 311°
2026-04-23 14:11 56.76921 9.59366 4029 ft 39 kts 309°
2026-04-23 14:11 56.77094 9.58876 3956 ft 49 kts 298°
2026-04-23 14:11 56.77102 9.58305 4005 ft 49 kts 269°
2026-04-23 14:11 56.76974 9.57666 3997 ft 49 kts 270°
2026-04-23 14:12 56.77051 9.57142 4046 ft 44 kts 313°
2026-04-23 14:12 56.77281 9.56766 4075 ft 41 kts 312°
2026-04-23 14:12 56.77460 9.56305 4141 ft 43 kts 298°
2026-04-23 14:12 56.77722 9.55890 3963 ft 62 kts 336°
2026-04-23 14:13 56.78111 9.55749 4019 ft 54 kts 339°
2026-04-23 14:13 56.78453 9.55612 3995 ft 49 kts 337°
2026-04-23 14:13 56.78782 9.55388 3936 ft 52 kts 332°
2026-04-23 14:13 56.79088 9.55099 3935 ft 48 kts 321°
2026-04-23 14:14 56.79330 9.54666 3897 ft 51 kts 326°
2026-04-23 14:14 56.79693 9.54606 3923 ft 60 kts 13°
2026-04-23 14:14 56.79612 9.55224 3963 ft 68 kts 178°
2026-04-23 14:14 56.79437 9.54905 3966 ft 30 kts 308°
2026-04-23 14:15 56.79630 9.54635 3896 ft 50 kts 323°
2026-04-23 14:15 56.79905 9.54613 3982 ft 47 kts
2026-04-23 14:15 56.80213 9.54691 4021 ft 36 kts 339°
2026-04-23 14:15 56.80437 9.54387 4007 ft 38 kts 295°
2026-04-23 14:16 56.80239 9.53861 3947 ft 62 kts 219°
2026-04-23 14:16 56.79810 9.53853 4014 ft 72 kts 177°
2026-04-23 14:16 56.79402 9.54282 4047 ft 80 kts 130°
2026-04-23 14:16 56.79188 9.55060 4119 ft 69 kts 88°
2026-04-23 14:17 56.79205 9.55896 4124 ft 51 kts 60°
2026-04-23 14:17 56.79397 9.56570 4038 ft 53 kts 37°
2026-04-23 14:17 56.79683 9.56912 3941 ft 58 kts 350°
2026-04-23 14:17 56.79903 9.56716 4080 ft 45 kts 310°
2026-04-23 14:18 56.80115 9.56907 4162 ft 75 kts 100°
2026-04-23 14:18 56.79828 9.56935 4147 ft 41 kts 306°
2026-04-23 14:18 56.80000 9.56607 4227 ft 38 kts 320°
2026-04-23 14:18 56.80226 9.56381 4187 ft 39 kts 328°
2026-04-23 14:19 56.80479 9.56219 4157 ft 38 kts 334°
2026-04-23 14:19 56.80742 9.56085 4122 ft 37 kts 334°
2026-04-23 14:19 56.81015 9.56042 4060 ft 39 kts 339°
2026-04-23 14:19 56.81286 9.55944 4102 ft 43 kts 335°
2026-04-23 14:20 56.81525 9.55810 4166 ft 37 kts 334°
2026-04-23 14:20 56.81797 9.55713 4170 ft 37 kts 346°
2026-04-23 14:20 56.82064 9.55670 4145 ft 38 kts 333°
2026-04-23 14:20 56.82305 9.55454 4115 ft 40 kts 319°
2026-04-23 14:21 56.82447 9.55113 4256 ft 31 kts 306°
2026-04-23 14:21 56.82528 9.54648 4218 ft 37 kts 287°
2026-04-23 14:21 56.82516 9.54167 4233 ft 38 kts 294°
2026-04-23 14:21 56.82689 9.53870 4228 ft 37 kts 320°
2026-04-23 14:22 56.82852 9.53651 4320 ft 19 kts 314°
2026-04-23 14:22 56.83027 9.53584 4262 ft 31 kts 344°
2026-04-23 14:22 56.83198 9.53568 4255 ft 22 kts 319°
2026-04-23 14:22 56.83202 9.53253 4259 ft 22 kts 294°
2026-04-23 14:23 56.83184 9.53379 4188 ft 46 kts 32°
2026-04-23 14:23 56.83259 9.53178 4100 ft 41 kts 290°
2026-04-23 14:23 56.83300 9.52842 4255 ft 23 kts 299°
2026-04-23 14:23 56.83361 9.52535 4325 ft 27 kts 302°
2026-04-23 14:24 56.83448 9.52211 4352 ft 31 kts 304°
2026-04-23 14:24 56.83571 9.51849 4284 ft 38 kts 306°
2026-04-23 14:24 56.83743 9.51513 4275 ft 39 kts 330°
2026-04-23 14:24 56.84003 9.51451 4236 ft 41 kts 343°
2026-04-23 14:25 56.84248 9.51404 4308 ft 39 kts
2026-04-23 14:25 56.84071 9.51722 4381 ft 45 kts 256°
2026-04-23 14:25 56.84083 9.51963 4485 ft 68 kts 165°
2026-04-23 14:25 56.84074 9.51779 4535 ft 27 kts 353°
2026-04-23 14:26 56.84273 9.51887 4520 ft 30 kts 354°
2026-04-23 14:26 56.84429 9.52258 4475 ft 38 kts 18°
2026-04-23 14:26 56.84533 9.52127 4484 ft 28 kts 277°
2026-04-23 14:26 56.84437 9.51798 4516 ft 27 kts 270°
2026-04-23 14:27 56.84318 9.51508 4444 ft 30 kts 264°
2026-04-23 14:27 56.84200 9.51163 4398 ft 33 kts 267°
2026-04-23 14:27 56.84055 9.50823 4394 ft 54 kts 196°
2026-04-23 14:27 56.83650 9.50795 4514 ft 45 kts 217°
2026-04-23 14:28 56.83571 9.50493 4511 ft 22 kts 311°
2026-04-23 14:28 56.83759 9.50706 4538 ft 40 kts 17°
2026-04-23 14:28 56.83948 9.50988 4608 ft 33 kts
2026-04-23 14:28 56.84135 9.51200 4633 ft 36 kts
2026-04-23 14:29 56.84244 9.50949 4601 ft 28 kts 310°
2026-04-23 14:29 56.84318 9.50652 4704 ft 25 kts 294°
2026-04-23 14:29 56.84180 9.50345 4785 ft 47 kts 220°
2026-04-23 14:29 56.83881 9.50663 4853 ft 53 kts 78°
2026-04-23 14:30 56.83940 9.50693 4912 ft 41 kts 242°
2026-04-23 14:30 56.83635 9.50954 4965 ft 57 kts 92°
2026-04-23 14:30 56.83743 9.51202 4964 ft 27 kts 296°
2026-04-23 14:30 56.83688 9.50771 4966 ft 37 kts 272°
2026-04-23 14:31 56.83628 9.50359 5049 ft 34 kts 276°
2026-04-23 14:31 56.83699 9.50065 4980 ft 39 kts
2026-04-23 14:31 56.83718 9.50717 4997 ft 68 kts 121°
2026-04-23 14:31 56.83404 9.51262 5084 ft 60 kts 133°
2026-04-23 14:32 56.83376 9.51868 5046 ft 38 kts
2026-04-23 14:32 56.83465 9.51588 5056 ft 32 kts 291°
2026-04-23 14:32 56.83472 9.51186 5086 ft 33 kts 282°
2026-04-23 14:32 56.83473 9.50753 5127 ft 26 kts 307°
2026-04-23 14:33 56.83616 9.51059 5129 ft 59 kts 81°
2026-04-23 14:33 56.83289 9.51401 5189 ft 50 kts 228°
2026-04-23 14:33 56.83278 9.50980 4982 ft 52 kts 301°
2026-04-23 14:33 56.83423 9.50302 5098 ft 11 kts 298°
2026-04-23 14:34 56.83527 9.50019 4842 ft 58 kts 16°
2026-04-23 14:34 56.83412 9.50246 4686 ft 66 kts
2026-04-23 14:34 56.83131 9.50683 4708 ft 70 kts 148°
2026-04-23 14:34 56.82995 9.50892 4551 ft 78 kts 168°
2026-04-23 14:35 56.82571 9.51013 4545 ft 67 kts 140°
2026-04-23 14:35 56.82096 9.51349 4490 ft 17 kts 334°
2026-04-23 14:35 56.82069 9.51911 4043 ft 78 kts 15°
2026-04-23 14:35 56.82242 9.52169 3933 ft 91 kts 58°
2026-04-23 14:36 56.82471 9.52180 4163 ft 36 kts 297°
2026-04-23 14:36 56.82579 9.51554 4038 ft 64 kts 291°
2026-04-23 14:36 56.82624 9.50963 2963 ft 14 kts 276°
2026-04-23 14:36 56.82732 9.50081 2099 ft 64 kts 301°
2026-04-23 14:37 56.82964 9.49587 2187 ft 46 kts 306°
2026-04-23 14:37 56.83266 9.49073 2044 ft 66 kts 324°
2026-04-23 14:37 56.83642 9.48864 2084 ft 55 kts 348°
2026-04-23 14:37 56.83826 9.48864 1849 ft 59 kts 319°
2026-04-23 14:38 56.84153 9.48180 1312 ft 102 kts 303°
2026-04-23 14:38 56.84538 9.46838 160 ft 135 kts 288°
2026-04-23 14:38 56.84865 9.45726 686 ft 47 kts 324°
2026-04-23 14:38 56.85151 9.45576 677 ft 55 kts 13°
2026-04-23 14:39 56.85126 9.46350 662 ft 65 kts 112°
2026-04-23 14:39 56.84999 9.47199 577 ft 74 kts 104°
2026-04-23 14:39 56.84893 9.48014 585 ft 64 kts 115°
2026-04-23 14:39 56.84523 9.48338 566 ft 50 kts 174°
2026-04-23 14:40 56.84219 9.48311 405 ft 35 kts 276°
2026-04-23 14:40 56.84317 9.47861 323 ft 39 kts 285°
2026-04-23 14:40 56.84410 9.47398 256 ft 40 kts 275°
2026-04-23 14:40 56.84486 9.46890 150 ft 43 kts 266°
2026-04-23 14:41 56.84570 9.46406 105 ft 35 kts 281°
2026-04-23 14:41 56.84629 9.46077 109 ft 17 kts 281°
2026-04-23 14:41 56.84633 9.46044 109 ft 0 kts 280°